When you browse on this site, cookies collect data to enhance your experience and personalize the content and advertising you see.
Visit our Privacy Policy to learn more. By continuing to use the site, you agree to this use of cookies and data.
  • In France
  • List of Countries
  • For 7 days
  • Water Temperature
  • Weather Map
  • Weather Widgets
  • user-avatar
    Login

    Hourly Weather Santiago del Estero

    Today, 25 February, Tuesday

    Time Temperature Precipitation Wind Pressure Humidity
    00:00 +24°C° 0 mm 1 mps 737 mmHg 55%
    01:00 +24°C° 0 mm 2 mps 737 mmHg 56%
    02:00 +23°C° 0 mm 2 mps 737 mmHg 56%
    03:00 +23°C° 0 mm 2 mps 737 mmHg 57%
    04:00 +21°C° 0 mm 2 mps 737 mmHg 59%
    05:00 +21°C° 0 mm 2 mps 738 mmHg 60%
    06:00 +22°C° 0 mm 3 mps 738 mmHg 57%
    07:00 +24°C° 0 mm 3 mps 739 mmHg 55%
    08:00 +26°C° 0 mm 3 mps 740 mmHg 52%
    09:00 +27°C° 0 mm 4 mps 741 mmHg 48%
    10:00 +29°C° 0 mm 4 mps 741 mmHg 43%
    11:00 +32°C° 0 mm 4 mps 741 mmHg 39%
    12:00 +33°C° 0 mm 4 mps 741 mmHg 36%
    13:00 +35°C° 0 mm 3 mps 741 mmHg 34%
    14:00 +36°C° 0 mm 3 mps 740 mmHg 31%
    15:00 +36°C° 0 mm 3 mps 740 mmHg 30%
    16:00 +36°C° 0 mm 3 mps 740 mmHg 29%
    17:00 +36°C° 0 mm 3 mps 740 mmHg 28%
    18:00 +34°C° 0 mm 3 mps 740 mmHg 32%
    19:00 +31°C° 0 mm 3 mps 741 mmHg 36%
    20:00 +29°C° 0 mm 3 mps 741 mmHg 39%
    21:00 +28°C° 0 mm 3 mps 742 mmHg 41%
    22:00 +27°C° 0 mm 3 mps 743 mmHg 42%
    23:00 +27°C° 0 mm 2 mps 743 mmHg 43%

    Tomorrow, 26 February, Wednesday

    Time Temperature Precipitation Wind Pressure Humidity
    00:00 +26°C° 0 mm 2 mps 743 mmHg 46%
    01:00 +25°C° 0 mm 1 mps 743 mmHg 49%
    02:00 +24°C° 0 mm 1 mps 743 mmHg 52%
    03:00 +24°C° 0 mm 1 mps 743 mmHg 52%
    04:00 +23°C° 0 mm 1 mps 743 mmHg 52%
    05:00 +23°C° 0 mm 1 mps 743 mmHg 53%
    06:00 +25°C° 0 mm 2 mps 743 mmHg 50%
    07:00 +26°C° 0 mm 2 mps 744 mmHg 47%
    08:00 +28°C° 0 mm 3 mps 744 mmHg 44%
    09:00 +29°C° 0 mm 3 mps 744 mmHg 38%
    10:00 +31°C° 0 mm 3 mps 744 mmHg 32%
    11:00 +34°C° 0 mm 3 mps 745 mmHg 25%
    12:00 +35°C° 0 mm 2 mps 744 mmHg 24%
    13:00 +36°C° 0 mm 2 mps 743 mmHg 23%
    14:00 +37°C° 0 mm 2 mps 742 mmHg 22%
    15:00 +37°C° 0 mm 2 mps 742 mmHg 21%
    16:00 +37°C° 0 mm 2 mps 741 mmHg 20%
    17:00 +37°C° 0 mm 3 mps 741 mmHg 20%
    18:00 +34°C° 0 mm 3 mps 741 mmHg 23%
    19:00 +30°C° 0 mm 2 mps 741 mmHg 26%
    20:00 +28°C° 0 mm 2 mps 741 mmHg 29%
    21:00 +27°C° 0 mm 3 mps 742 mmHg 30%
    22:00 +26°C° 0 mm 3 mps 742 mmHg 32%
    23:00 +25°C° 0 mm 3 mps 743 mmHg 33%

    Day after tomorrow, 27 February, Thursday

    Time Temperature Precipitation Wind Pressure Humidity
    00:00 +24°C° 0 mm 3 mps 742 mmHg 36%
    01:00 +23°C° 0 mm 2 mps 742 mmHg 39%
    02:00 +22°C° 0 mm 1 mps 742 mmHg 42%
    03:00 +21°C° 0 mm 1 mps 742 mmHg 44%
    04:00 +21°C° 0 mm 1 mps 742 mmHg 46%
    05:00 +20°C° 0 mm 1 mps 742 mmHg 48%
    06:00 +22°C° 0 mm 1 mps 742 mmHg 44%
    07:00 +24°C° 0 mm 1 mps 743 mmHg 40%
    08:00 +26°C° 0 mm 1 mps 743 mmHg 36%
    09:00 +28°C° 0 mm 2 mps 743 mmHg 32%
    10:00 +31°C° 0 mm 3 mps 743 mmHg 28%
    11:00 +34°C° 0 mm 3 mps 743 mmHg 25%
    12:00 +35°C° 0 mm 3 mps 742 mmHg 23%
    13:00 +36°C° 0 mm 3 mps 742 mmHg 22%
    14:00 +38°C° 0 mm 4 mps 741 mmHg 21%
    15:00 +38°C° 0 mm 4 mps 741 mmHg 21%
    16:00 +38°C° 0 mm 4 mps 740 mmHg 21%
    17:00 +38°C° 0 mm 4 mps 739 mmHg 22%
    18:00 +35°C° 0 mm 4 mps 740 mmHg 24%
    19:00 +33°C° 0 mm 4 mps 740 mmHg 27%
    20:00 +29°C° 0 mm 4 mps 740 mmHg 30%
    21:00 +28°C° 0 mm 4 mps 740 mmHg 31%
    22:00 +27°C° 0 mm 3 mps 741 mmHg 33%
    23:00 +26°C° 0 mm 3 mps 741 mmHg 35%

    28 February, Friday

    Time Temperature Precipitation Wind Pressure Humidity
    00:00 +25°C° 0 mm 3 mps 741 mmHg 37%
    01:00 +24°C° 0 mm 2 mps 741 mmHg 39%
    02:00 +24°C° 0 mm 2 mps 741 mmHg 42%
    03:00 +23°C° 0 mm 2 mps 741 mmHg 43%
    04:00 +23°C° 0 mm 2 mps 741 mmHg 44%
    05:00 +21°C° 0 mm 2 mps 741 mmHg 46%
    06:00 +24°C° 0 mm 2 mps 742 mmHg 43%
    07:00 +25°C° 0 mm 2 mps 742 mmHg 40%
    08:00 +27°C° 0 mm 3 mps 743 mmHg 38%
    09:00 +30°C° 0 mm 3 mps 742 mmHg 33%
    10:00 +33°C° 0 mm 4 mps 742 mmHg 28%
    11:00 +36°C° 0 mm 4 mps 742 mmHg 24%
    12:00 +37°C° 0 mm 4 mps 742 mmHg 22%
    13:00 +38°C° 0 mm 4 mps 741 mmHg 20%
    14:00 +41°C° 0 mm 4 mps 741 mmHg 18%
    15:00 +41°C° 0 mm 4 mps 740 mmHg 18%
    16:00 +39°C° 0 mm 3 mps 740 mmHg 19%
    17:00 +39°C° 0 mm 3 mps 740 mmHg 19%
    18:00 +37°C° 0 mm 3 mps 740 mmHg 22%
    19:00 +34°C° 0 mm 3 mps 740 mmHg 25%
    20:00 +31°C° 0 mm 3 mps 741 mmHg 29%
    21:00 +29°C° 0 mm 3 mps 741 mmHg 31%
    22:00 +28°C° 0 mm 3 mps 742 mmHg 34%
    23:00 +27°C° 0 mm 3 mps 742 mmHg 37%

    29 February, Saturday

    Time Temperature Precipitation Wind Pressure Humidity
    00:00 +27°C° 0 mm 2 mps 742 mmHg 38%
    01:00 +26°C° 0 mm 2 mps 742 mmHg 39%
    02:00 +26°C° 0 mm 2 mps 743 mmHg 40%
    03:00 +25°C° 0 mm 1 mps 743 mmHg 43%
    04:00 +25°C° 0 mm 1 mps 743 mmHg 45%
    05:00 +22°C° 0 mm 0 mps 744 mmHg 48%
    06:00 +24°C° 0 mm 0 mps 744 mmHg 44%
    07:00 +26°C° 0 mm 0 mps 745 mmHg 40%
    08:00 +27°C° 0 mm 0 mps 745 mmHg 36%
    09:00 +31°C° 0 mm 1 mps 745 mmHg 33%
    10:00 +33°C° 0 mm 1 mps 745 mmHg 29%
    11:00 +37°C° 0 mm 2 mps 745 mmHg 25%
    12:00 +38°C° 0 mm 2 mps 745 mmHg 22%
    13:00 +39°C° 0 mm 3 mps 744 mmHg 19%
    14:00 +40°C° 0 mm 3 mps 744 mmHg 16%
    15:00 +40°C° 0 mm 3 mps 743 mmHg 16%
    16:00 +40°C° 0 mm 2 mps 743 mmHg 16%
    17:00 +40°C° 0 mm 2 mps 742 mmHg 16%
    18:00 +37°C° 0 mm 2 mps 742 mmHg 20%
    19:00 +32°C° 0 mm 2 mps 743 mmHg 24%
    20:00 +29°C° 0 mm 2 mps 743 mmHg 27%
    21:00 +29°C° 0 mm 2 mps 743 mmHg 28%
    22:00 +28°C° 0 mm 2 mps 744 mmHg 29%
    23:00 +27°C° 0 mm 2 mps 744 mmHg 29%

    1 March, Sunday

    Time Temperature Precipitation Wind Pressure Humidity
    00:00 +26°C° 0 mm 2 mps 744 mmHg 31%
    01:00 +26°C° 0 mm 2 mps 744 mmHg 33%
    02:00 +25°C° 0 mm 2 mps 744 mmHg 35%
    03:00 +24°C° 0 mm 2 mps 744 mmHg 37%
    04:00 +24°C° 0 mm 2 mps 744 mmHg 39%
    05:00 +23°C° 0 mm 2 mps 744 mmHg 41%
    06:00 +25°C° 0 mm 2 mps 744 mmHg 39%
    07:00 +27°C° 0 mm 2 mps 745 mmHg 36%
    08:00 +29°C° 0 mm 2 mps 745 mmHg 34%
    09:00 +33°C° 0 mm 3 mps 745 mmHg 30%
    10:00 +36°C° 0 mm 4 mps 745 mmHg 25%
    11:00 +38°C° 0 mm 4 mps 745 mmHg 21%
    12:00 +40°C° 0 mm 4 mps 744 mmHg 19%
    13:00 +41°C° 0 mm 4 mps 743 mmHg 17%
    14:00 +42°C° 0 mm 4 mps 743 mmHg 15%
    15:00 +42°C° 0 mm 4 mps 742 mmHg 15%
    16:00 +41°C° 0 mm 4 mps 741 mmHg 15%
    17:00 +41°C° 0 mm 4 mps 740 mmHg 16%
    18:00 +37°C° 0 mm 4 mps 741 mmHg 19%
    19:00 +35°C° 0 mm 3 mps 741 mmHg 22%
    20:00 +31°C° 0 mm 3 mps 741 mmHg 24%
    21:00 +30°C° 0 mm 3 mps 741 mmHg 26%
    22:00 +29°C° 0 mm 4 mps 742 mmHg 27%
    23:00 +28°C° 0 mm 4 mps 742 mmHg 29%
    Show more